Weather History for Cape Girardeau, MO

Change the Weather History Date:

Tuesday, June 18, 2013

  Actual Average Record
Temperature  
Mean Temperature 76 °F 76 °F  
Max Temperature 87 °F 87 °F 97 °F (1973)
Min Temperature 64 °F 65 °F 51 °F (1960)
Degree Days  
Heating Degree Days 0 0  
Month to date heating degree days 0 1  
Since 1 June heating degree days 0 1  
Since 1 July heating degree days 4359 4387  
Cooling Degree Days 11 11  
Month to date cooling degree days 153 162  
Year to date cooling degree days 324 314  
Since 1 June cooling degree days 153 162  
Growing Degree Days 26 (Base 50)    
Moisture  
Dew Point 65 °F    
Average Humidity 70    
Maximum Humidity 93    
Minimum Humidity 46    
Precipitation  
Precipitation 0.00 in 0.11 in 2.50 in (1976)
Month to date precipitation 5.40 2.20  
Year to date precipitation 21.57 23.30  
Sea Level Pressure  
Sea Level Pressure 29.93 in    
Wind  
Wind Speed 4 mph (NNW)    
Max Wind Speed 12 mph    
Max Gust Speed 14 mph    
Visibility 10 miles    
Events      
T = Trace of Precipitation, MM = Missing Value Source: NWS Daily Summary

Daily Weather History Graph

Daily Weather History Graph

Search for Another Location

Airport:

Trip Planner

Search our weather history database for the weather conditions in past years. The results will help you decide how hot, cold, wet, or windy it might be!

Date:

Astronomy

Jun. 18, 2013 Rise Set
Actual Time 5:37 AM CDT 8:21 PM CDT
Civil Twilight 5:06 AM CDT 8:52 PM CDT
Nautical Twilight 4:28 AM CDT 9:31 PM CDT
Astronomical Twilight 3:44 AM CDT 10:14 PM CDT
Moon 3:10 PM CDT 1:40 AM CDT
Length of Visible Light 15h 45m
Length of Day
14h 43m
Waxing Gibbous, 71% of the Moon is Illuminated
Jun 18
Waxing Gibbous
Jun 23
Full
Jun 29
Last Quarter
Jul 8
New
Jul 15
First Quarter

Hourly Weather History & Observations

Time (CDT) Temp. Heat Index Dew Point Humidity Pressure Visibility Wind Dir Wind Speed Gust Speed Precip Events Conditions
12:45 AM 66.2 °F - 64.4 °F 94% 29.88 in 10.0 mi WNW 6.9 mph - N/A   Scattered Clouds
12:53 AM 66.9 °F - 64.9 °F 93% 29.88 in 9.0 mi NW 6.9 mph - N/A   Mostly Cloudy
1:05 AM 68.0 °F - 64.4 °F 88% 29.91 in 9.0 mi NNW 9.2 mph - N/A   Mostly Cloudy
1:34 AM 68.0 °F - 64.4 °F 88% 29.91 in 10.0 mi North 4.6 mph - N/A   Overcast
1:53 AM 66.9 °F - 64.9 °F 93% 29.90 in 10.0 mi NNE 6.9 mph - N/A   Overcast
2:12 AM 66.2 °F - 64.4 °F 94% 29.91 in 10.0 mi NNE 6.9 mph - N/A   Scattered Clouds
2:23 AM 66.2 °F - 64.4 °F 94% 29.91 in 10.0 mi North 3.5 mph - N/A   Mostly Cloudy
2:33 AM 66.2 °F - 64.4 °F 94% 29.90 in 10.0 mi North 5.8 mph - N/A   Scattered Clouds
2:53 AM 66.9 °F - 64.0 °F 90% 29.90 in 10.0 mi Calm Calm - N/A   Partly Cloudy
3:19 AM 66.2 °F - 64.4 °F 94% 29.91 in 10.0 mi North 3.5 mph - N/A   Mostly Cloudy
3:27 AM 66.2 °F - 64.4 °F 94% 29.91 in 10.0 mi North 3.5 mph - N/A   Scattered Clouds
3:53 AM 66.0 °F - 63.0 °F 90% 29.92 in 10.0 mi NNW 4.6 mph - N/A   Clear
4:53 AM 64.9 °F - 62.1 °F 90% 29.93 in 10.0 mi North 3.5 mph - N/A   Clear
5:53 AM 64.0 °F - 62.1 °F 93% 29.93 in 10.0 mi North 6.9 mph - N/A   Clear
6:26 AM 64.4 °F - 62.6 °F 94% 29.96 in 6.0 mi North 6.9 mph - N/A   Partly Cloudy
6:44 AM 64.4 °F - 62.6 °F 94% 29.95 in 6.0 mi North 4.6 mph - N/A   Mostly Cloudy
6:53 AM 66.0 °F - 63.0 °F 90% 29.95 in 6.0 mi North 6.9 mph - N/A   Mostly Cloudy
7:24 AM 66.2 °F - 64.4 °F 94% 29.96 in 8.0 mi North 5.8 mph - N/A   Scattered Clouds
7:53 AM 69.1 °F - 64.0 °F 84% 29.96 in 10.0 mi North 6.9 mph - N/A   Clear
8:53 AM 72.0 °F - 64.0 °F 76% 29.96 in 10.0 mi North 4.6 mph - N/A   Clear
9:53 AM 75.9 °F - 64.0 °F 67% 29.97 in 10.0 mi NNE 5.8 mph - N/A   Clear
10:53 AM 79.0 °F - 64.9 °F 62% 29.98 in 10.0 mi NNE 6.9 mph - N/A   Clear
11:53 AM 81.0 °F 83.0 °F 66.0 °F 60% 29.97 in 10.0 mi Variable 4.6 mph - N/A   Clear
12:53 PM 82.0 °F 84.5 °F 66.9 °F 60% 29.96 in 10.0 mi Variable 4.6 mph - N/A   Clear
1:53 PM 84.0 °F 87.0 °F 68.0 °F 58% 29.95 in 10.0 mi Calm Calm - N/A   Clear
2:53 PM 84.0 °F 86.3 °F 66.0 °F 55% 29.94 in 10.0 mi NNW 4.6 mph - N/A   Clear
3:53 PM 86.0 °F 88.2 °F 66.0 °F 51% 29.92 in 10.0 mi West 3.5 mph - N/A   Clear
4:53 PM 84.9 °F 86.6 °F 64.9 °F 51% 29.91 in 10.0 mi West 4.6 mph - N/A   Partly Cloudy
5:53 PM 87.1 °F 88.3 °F 64.0 °F 46% 29.89 in 10.0 mi Variable 3.5 mph - N/A   Clear
6:53 PM 84.0 °F 87.0 °F 68.0 °F 58% 29.90 in 10.0 mi SW 5.8 mph - N/A   Clear
7:53 PM 80.1 °F 83.2 °F 70.0 °F 71% 29.91 in 10.0 mi SSW 4.6 mph - N/A   Partly Cloudy
8:53 PM 78.1 °F - 69.1 °F 74% 29.92 in 10.0 mi Calm Calm - N/A   Partly Cloudy
9:53 PM 75.9 °F - 72.0 °F 87% 29.94 in 10.0 mi West 3.5 mph - N/A   Mostly Cloudy
10:53 PM 73.9 °F - 71.1 °F 91% 29.94 in 10.0 mi WSW 3.5 mph - N/A   Partly Cloudy
11:53 PM 73.0 °F - 70.0 °F 90% 29.94 in 10.0 mi WSW 4.6 mph - N/A   Clear